C/2018 W2 ( Africano )

Japanese version
Home page
Updated on March 26, 2020

---------------------------------------------------------------------

* Profile

Discovery Date November 27, 2018
Magnitude 18.3 mag and 18.2 mag
Discoverer B. M. Africano (Mount Lemmon), H. Groeller (Catalina Sky Survey)

* Pictures

* Orbital Elements

Epoch 2019 Aug. 25.0 TT = JDT 2458720.5
T 2019 Sept. 5.72956 TT                                 Rudenko
q   1.4546665            (2000.0)            P               Q
z  -0.0005218      Peri.  157.97322     +0.92110266     +0.38824892
 +/-0.0000004      Node   181.84961     +0.04815166     -0.04006006
e   1.0007590      Incl.  116.61562     +0.38633057     -0.92068342
From 1920 observations 2018 Nov. 27-2019 Dec. 31, mean residual 0".6.

* Finding Charts

* Magnitudes Graph

        m1 = 8.0 + 5 log d + 12.5 log r

---------------------------------------------------------------------

The orbital elements are published on M.P.E.C. 2020-F67.
The charts are made with StellaNavigator Ver.10 (AstroArts).
The magnitudes graphs are made with Comet for Windows.

---------------------------------------------------------------------

Copyright(C) Seiichi Yoshida (comet@aerith.net). All rights reserved.